OBJECT F

Satellite information

Favourite Embed

Satellite Type and Status

UNKNOWNIN ORBIT

Key statistics

Satellite OBJECT F at a glance.

Uptime

838

Days in orbit

Revolutions

≈ 15.2

Per day

Orbit

SSO

Sun Synchronous Orbit

Inclination

97.5

Latest

Satellite identification and parameters

Extended collection of information and parameters for OBJECT F.

Object identification

Identified? True

Debris? False

Object name: OBJECT F

International designator: 2023-072F

Object number (NORAD): 56748

Object ID (CCSDS): 56748

Country: SOUTH KOREA (SKOR)

Current information (Y/N): Y

RCS size: MEDIUM

Orbital parameters

Period: 94.441 minutes

Inclination: 97.5239 deg

SMA: 6869.647 km

Apoapsis: 495.233 km

Periapsis: 487.791 km

RAAN: 81.3998 deg

Eccentricy: 0.00054167

Argument of periapsis: 299.094 deg

Mean anomaly: 60.9755 deg

Mean motion: 15.24758693 rev/day

Mean motion (dot): 0.00008687 rev/day2

B* drag term: 0.00035336266 1/REarth

Two-line elements (TLE)

Creation date: Sept. 8, 2025, 3:16 a.m.

Reference frame: TEME

Reference center: EARTH

Epoch: Sept. 7, 2025, 11:17 p.m. UTC

TLE line 0: 0 OBJECT F

TLE line 1: 1 56748U 23072F 25250.97065811 .00008687 00000-0 35336-3 0 9997

TLE line 2: 2 56748 97.5239 81.3998 0005417 299.0940 60.9755 15.24758693126679

Live tracking on map

Real-time ground track for satellite OBJECT F.

In-orbit conjunctions

There are no conjunctions computed for OBJECT F, at the moment. Check back to stay up to date, as we update our databases every day.

Go to all conjunctions

Associated space launch

Third flight of the KSLV-II "Nuri" launch vehicle, carrying NEXTSat-2 as well as SNIPE A through D.

OBJECT F was lifted into orbit during the mission ‘Nuri | NEXTSat-2 & SNIPE’, on board a Nuri space rocket.

The launch took place on May 25, 2023, 9:24 a.m. from LC-2.

For more information about the launch, click the button.

Launch to space Nuri | NEXTSat-2 & SNIPE
Nuri | NEXTSat-2 & SNIPE

Agency: N/A

Status: Launch Successful

Launch date: May 25, 2023, 9:24 a.m. UTC

Rocket: Nuri

Launch pad: LC-2

Location: Naro Space Center, South Korea

...

Latest news about this satellite

News about space launch
South Korea’s KSLV-2 rocket launches seven satellites, one unaccounted for

South Korea’s KSLV-2 rocket put seven satellites, including one equipped with synthetic aperture radar, into sun-synchronous orbit May 25, although an eighth cubesat is believed to have not deployed properly.

News about space launch
South Korea’s KSLV-2 rocket set to launch May 24

South Korea’s homegrown KSLV-2 rocket is slated to launch May 24, carrying a 180-kilogram technology demonstration satellite and seven cubesats.


Newsletter sign-up

Weekly statistics, charts and insights to help you stay on top of the space industry.